Tracking 19490 objects as of 24-Jan-2019
HD Live streaming from Space Station
objects crossing your sky now

FENGYUN 1C DEB

Track FENGYUN 1C DEB now!
10-day predictions


NORAD ID: 32089
Int'l Code: 1999-025CQF
Perigee: 784.6 km
Apogee: 957.4 km
Inclination: 98.8 °
Period: 102.2 minutes
Semi major axis: 7241 km
RCS: 0.0109 m2 (small)
Launch date: May 10, 1999
Source: People's Republic of China (PRC)
Launch site: Taiyaun Space Center, China (TSC)

Note: This is SATELLITE DEBRIS
aabbcc
Your satellite tracking list
Your tracking list is empty




NASA's NSSDC Master Catalog

Two Line Element Set (TLE):
1 32089U 99025CQF 19023.35885561  .00000108  00000-0  81990-4 0  9993
2 32089  98.8440  68.6218 0119258  52.5341 308.6605 14.08692450591590
Source of the keplerian elements: AFSPC